TimeCDT,TemperatureF,Dew PointF,Humidity,Sea Level PressureIn,VisibilityMPH,Wind Direction,Wind SpeedMPH,Gust SpeedMPH,PrecipitationIn,Events,Conditions,WindDirDegrees,DateUTC
12:53 AM,73.9,55.9,53,29.96,10.0,Calm,Calm,-,N/A,,Partly Cloudy,0,2013-07-14 05:53:00
1:53 AM,73.0,57.0,57,29.96,10.0,Calm,Calm,-,N/A,,Clear,0,2013-07-14 06:53:00
2:53 AM,73.0,57.0,57,29.95,10.0,SE,8.1,-,N/A,,Clear,140,2013-07-14 07:53:00
3:53 AM,71.1,57.0,61,29.96,10.0,ESE,5.8,-,N/A,,Clear,120,2013-07-14 08:53:00
4:53 AM,66.9,57.0,70,29.98,10.0,Calm,Calm,-,N/A,,Clear,0,2013-07-14 09:53:00
5:53 AM,68.0,57.9,70,29.99,10.0,Calm,Calm,-,N/A,,Clear,0,2013-07-14 10:53:00
6:53 AM,64.0,57.9,80,30.00,10.0,Calm,Calm,-,N/A,,Clear,0,2013-07-14 11:53:00
7:53 AM,68.0,59.0,73,30.01,10.0,Calm,Calm,-,N/A,,Clear,0,2013-07-14 12:53:00
8:53 AM,73.9,59.0,59,30.03,9.0,ESE,5.8,-,N/A,,Clear,120,2013-07-14 13:53:00
9:53 AM,77.0,59.0,54,30.04,10.0,East,5.8,-,N/A,,Clear,100,2013-07-14 14:53:00
10:53 AM,80.1,55.0,42,30.03,10.0,ESE,11.5,-,N/A,,Haze,110,2013-07-14 15:53:00
11:53 AM,82.9,57.0,41,30.01,10.0,ESE,9.2,18.4,N/A,,Clear,120,2013-07-14 16:53:00
12:53 PM,84.9,55.0,36,30.00,10.0,ESE,11.5,19.6,N/A,,Clear,110,2013-07-14 17:53:00
1:53 PM,84.9,53.1,33,29.99,10.0,East,16.1,19.6,N/A,,Clear,80,2013-07-14 18:53:00
2:53 PM,84.9,54.0,34,29.98,10.0,Variable,6.9,19.6,N/A,,Clear,0,2013-07-14 19:53:00
3:00 PM,86.0,51.8,31,30.03,10.0,ENE,16.1,19.6,N/A,,Partly Cloudy,70,2013-07-14 20:00:00
3:22 PM,86.0,48.2,27,30.03,2.5,East,16.1,19.6,N/A,,Clear,80,2013-07-14 20:22:00
3:30 PM,84.2,50.0,30,30.03,10.0,ENE,9.2,-,N/A,,Clear,60,2013-07-14 20:30:00
3:45 PM,87.8,51.8,29,30.03,10.0,ESE,11.5,18.4,N/A,,Partly Cloudy,110,2013-07-14 20:45:00
3:53 PM,87.1,48.0,26,29.98,10.0,ESE,11.5,-,N/A,,Clear,110,2013-07-14 20:53:00
4:53 PM,86.0,50.0,29,29.97,10.0,SSE,5.8,-,N/A,,Clear,150,2013-07-14 21:53:00
5:53 PM,87.1,51.1,29,29.97,10.0,ENE,10.4,-,N/A,,Clear,70,2013-07-14 22:53:00
6:53 PM,84.0,52.0,33,29.97,10.0,ESE,8.1,-,N/A,,Clear,110,2013-07-14 23:53:00
7:53 PM,81.0,55.0,41,29.99,10.0,East,8.1,-,N/A,,Clear,100,2013-07-15 00:53:00
8:53 PM,79.0,55.0,44,30.00,10.0,East,6.9,-,N/A,,Clear,100,2013-07-15 01:53:00
9:53 PM,77.0,55.9,48,30.02,10.0,East,4.6,-,N/A,,Clear,100,2013-07-15 02:53:00
10:53 PM,75.9,57.0,52,30.04,10.0,East,4.6,-,N/A,,Clear,100,2013-07-15 03:53:00
11:53 PM,75.0,59.0,57,30.04,10.0,East,4.6,-,N/A,,Clear,100,2013-07-15 04:53:00